This demonstration page uses our WeatherBlox Daily Observations layout. Learn more.

Left ArrowRight Arrow

41.64144, -80.15145

Hourly Observations for January 25, 2022

Temp ( °F °C ) Dew Point ( °F °C ) Humidity (%) Winds ( mph kmh ) Pressure ( in mb ) Visibility ( mi km ) Precip ( " mm )
12:19 am 00:19 Cloudy with Light Snow 23 -5 21 -6.1 92 92 W 12 19 29.84 1010 3 5 0.00 0.00
12:27 am 00:27 Cloudy with Light Snow 23 -5 20 -6.7 88 88 W 13 20 29.83 1010 3 5 0.00 0.00
12:53 am 00:53 Cloudy with Light Snow 23 -5 20 -6.7 88 88 W 12 19 29.79 1009 5 8 0.00 0.00
1:08 am 01:08 Cloudy with Light Snow 23 -5 19 -7.2 85 85 WSW 10 17 29.84 1010 6 10 0.00 0.00
1:45 am 01:45 Cloudy with Light Snow 22 -5.6 19 -7.2 89 89 W 9 15 29.84 1010 3 4 0.00 0.00
1:53 am 01:53 Cloudy with Light Snow 22 -5.6 19 -7.2 89 89 WSW 8 13 29.80 1009 1 2 0.00 0.00
2:40 am 02:40 Cloudy with Light Snow 22 -5.6 20 -6.7 92 92 WSW 6 9 29.87 1012 1 2 0.01 0.25
2:53 am 02:53 Cloudy with Light Snow 22 -5.6 20 -6.7 92 92 W 6 9 29.84 1010 2 3 0.01 0.25
3:04 am 03:04 Cloudy with Light Snow 22 -5.6 20 -6.7 92 92 WSW 8 13 29.88 1012 3 5 0.00 0.00
3:28 am 03:28 Cloudy with Light Snow 22 -5.6 20 -6.7 92 92 W 7 11 29.89 1012 2 3 0.00 0.00
3:46 am 03:46 Cloudy with Light Snow 22 -5.6 19 -7.2 89 89 NW 8 13 29.90 1013 2 3 0.00 0.00
3:53 am 03:53 Cloudy with Light Snow 21 -6.1 19 -7.2 92 92 WNW 5 7 29.86 1011 3 4 0.00 0.00
4:02 am 04:02 Cloudy with Light Snow 21 -6.1 19 -7.2 92 92 WNW 7 11 29.91 1013 4 6 0.00 0.00
4:27 am 04:27 Cloudy with Light Snow 21 -6.1 19 -7.2 92 92 W 7 11 29.92 1013 3 5 0.00 0.00
4:44 am 04:44 Cloudy with Light Snow 21 -6.1 18 -7.8 88 88 WNW 7 11 29.92 1013 3 4 0.00 0.00
4:53 am 04:53 Cloudy with Light Snow 21 -6.1 18 -7.8 88 88 VRB 7 11 29.88 1012 3 4 0.00 0.00
5:01 am 05:01 Cloudy with Light Snow 21 -6.1 18 -7.8 88 88 NW 7 11 29.93 1014 3 5 0.00 0.00
5:15 am 05:15 Cloudy with Light Snow 21 -6.1 18 -7.8 88 88 VRB 6 9 29.94 1014 5 8 0.00 0.00
5:23 am 05:23 Cloudy with Light Snow 21 -6.1 18 -7.8 88 88 WNW 8 13 29.94 1014 5 8 0.00 0.00
5:53 am 05:53 Cloudy with Light Snow 20 -6.7 17 -8.3 89 89 WNW 7 11 29.92 1013 4 6 0.00 0.00
6:07 am 06:07 Cloudy with Light Snow 20 -6.7 17 -8.3 89 89 W 5 7 29.98 1015 5 8 0.00 0.00
6:22 am 06:22 Cloudy with Light Snow 20 -6.7 17 -8.3 89 89 W 6 9 29.99 1015 3 5 0.00 0.00
6:31 am 06:31 Cloudy with Light Snow 20 -6.7 17 -8.3 89 89 W 7 11 29.99 1015 2 3 0.00 0.00
6:38 am 06:38 Cloudy with Light Snow 20 -6.7 17 -8.3 89 89 W 8 13 30.00 1016 1 1 0.00 0.00
6:53 am 06:53 Cloudy with Light Snow 20 -6.7 17 -8.3 89 89 WNW 9 15 29.96 1014 1 2 0.01 0.25
7:00 am 07:00 Cloudy with Light Snow 20 -6.7 17 -8.3 89 89 NW 9 15 30.01 1016 3 4 0.00 0.00
7:11 am 07:11 Cloudy with Light Snow 20 -6.7 17 -8.3 89 89 WNW 7 11 30.02 1017 2 3 0.00 0.00
7:28 am 07:28 Cloudy with Light Snow 19 -7.2 16 -8.9 88 88 NW 13 20 30.03 1017 2 2 0.00 0.00
7:36 am 07:36 Cloudy with Light Snow 19 -7.2 15 -9.4 84 84 NW 9 15 30.04 1017 3 5 0.00 0.00
7:46 am 07:46 Cloudy with Light Snow 19 -7.2 15 -9.4 84 84 WNW 8 13 30.05 1018 2 3 0.00 0.00
7:53 am 07:53 Cloudy with Light Snow 19 -7.2 15 -9.4 84 84 WNW 8 13 30.01 1016 3 4 0.00 0.00
8:14 am 08:14 Cloudy with Light Snow 19 -7.2 14 -10 81 81 WNW 8 13 30.07 1018 4 6 0.00 0.00
8:53 am 08:53 Cloudy 19 -7.2 12 -11.1 74 74 WNW 8 13 30.04 1017 10 16 0.00 0.00
9:11 am 09:11 Cloudy with Light Snow 18 -7.8 13 -10.6 81 81 NW 8 13 30.11 1020 3 4 0.00 0.00
9:19 am 09:19 Cloudy 19 -7.2 13 -10.6 77 77 WNW 10 17 30.11 1020 8 13 0.00 0.00
9:53 am 09:53 Mostly Cloudy 18 -7.8 8 -13.3 65 65 WNW 7 11 30.08 1019 10 16 0.00 0.00
10:53 am 10:53 Mostly Cloudy 20 -6.7 5 -15 52 52 NNW 12 19 30.11 1020 10 16 0.00 0.00
11:53 am 11:53 Cloudy 21 -6.1 5 -15 50 50 NW 10 17 30.11 1020 10 16 0.00 0.00
12:53 pm 12:53 Cloudy 19 -7.2 6 -14.4 57 57 NW 8 13 30.11 1020 10 16 0.00 0.00
1:53 pm 13:53 Mostly Cloudy 19 -7.2 4 -15.6 51 51 WNW 10 17 30.13 1020 10 16 0.00 0.00
2:53 pm 14:53 Mostly Cloudy 18 -7.8 4 -15.6 54 54 W 8 13 30.14 1021 10 16 0.00 0.00
3:53 pm 15:53 Mostly Cloudy 18 -7.8 5 -15 57 57 W 10 17 30.16 1022 10 16 0.00 0.00
4:53 pm 16:53 Mostly Cloudy 17 -8.3 4 -15.6 56 56 WNW 6 9 30.18 1022 10 16 0.00 0.00
5:53 pm 17:53 Clear 15 -9.4 4 -15.6 61 61 NW 5 7 30.21 1023 10 16 0.00 0.00
6:53 pm 18:53 Clear 12 -11.1 4 -15.6 70 70 NW 3 6 30.24 1024 10 16 0.00 0.00
7:53 pm 19:53 Mostly Cloudy 12 -11.1 4 -15.6 70 70 NW 3 6 30.24 1024 10 16 0.00 0.00
8:53 pm 20:53 Cloudy 13 -10.6 6 -14.4 74 74 Calm 30.25 1024 10 16 0.00 0.00
9:53 pm 21:53 Cloudy 14 -10 6 -14.4 71 71 Calm 30.24 1024 10 16 0.00 0.00
10:53 pm 22:53 Cloudy 12 -11.1 5 -15 73 73 S 3 6 30.25 1024 10 16 0.00 0.00
11:53 pm 23:53 Cloudy with Haze 12 -11.1 6 -14.4 77 77 SSW 5 7 30.25 1024 6 10 0.00 0.00

Powered by AerisWeather